SCURO_MOUNTAIN current weather conditions

sailwx.info

Last reported at 2019-Nov-18 01:00 UTC.
Time now 2019-Nov-18 01:35 UTC

Location: N 39°20' E 016°23'.
View on Google Maps.

See reports from other nearby stations

  
Tides and Currents Weather Stations Pressure Air Temp Water Temp Dewpoint Dewpoint Depression Visibility Wind Speed Wind Dir Waves Ship Positions
date/time (UTC)wind fromknots sea level pressurealtimeterstation pressurevisibilityair tempwater tempwave heightnotes
2019-Nov-18 00:55 150 20 3.0 Fog.
2019-Nov-17 23:55 150 25 3.0 Light rain. Fog.
2019-Nov-17 21:55 120 20 3.0 Light rain. Fog.
2019-Nov-17 20:55 120 14 4.0 Light rain. Fog.
2019-Nov-17 19:55 120 20 4.0 Light rain. Fog.
2019-Nov-17 18:55 150 13 5.4 4.0 Light rain.
2019-Nov-17 17:55 120 13 5.0 Rain. Fog.
2019-Nov-17 16:55 120 20 5.0 Light rain. Fog.
2019-Nov-17 15:55 120 12 5.0 Light rain. Fog.
2019-Nov-17 14:55 120 12 6.0 Rain. Fog.
2019-Nov-17 13:55 120 20 6.0 Rain. Fog.
2019-Nov-17 12:55 120 18 5.4 9.0
2019-Nov-17 11:55 100 20 5.4 9.0
2019-Nov-17 10:55 100 29 5.4 9.0
2019-Nov-17 09:55 100 25 5.4 9.0
2019-Nov-17 08:55 100 29 5.4 8.0
2019-Nov-17 07:55 090 29 5.4 8.0
2019-Nov-17 06:55 110 32 5.4 7.0
2019-Nov-17 05:55 110 34 5.4 7.0
2019-Nov-17 04:55 130 34 5.4 8.0
2019-Nov-17 03:55 130 34 5.4 8.0
2019-Nov-17 02:55 130 34 5.4 7.0
2019-Nov-17 01:55 130 34 5.4 7.0
2019-Nov-17 00:55 130 34 5.4 7.0
2019-Nov-16 23:55 130 34 5.4 7.0
2019-Nov-16 22:55 120 29 5.4 7.0
2019-Nov-16 21:55 130 29 5.4 7.0
2019-Nov-16 20:55 130 32 5.4 7.0
2019-Nov-16 19:55 130 29 5.4 7.0
2019-Nov-16 18:55 120 25 5.4 7.0
2019-Nov-16 17:55 100 25 5.4 7.0
2019-Nov-16 16:55 130 26 5.4 7.0
2019-Nov-16 15:55 120 25 5.4 8.0
2019-Nov-16 14:55 120 26 5.4 8.0
2019-Nov-16 13:55 090 25 5.4 9.0
2019-Nov-16 12:55 090 22 5.4 9.0
2019-Nov-16 11:55 090 25 5.4 9.0
2019-Nov-16 10:55 100 25 5.4 9.0
2019-Nov-16 09:55 100 25 5.4 9.0
2019-Nov-16 08:55 100 25 5.4 9.0
2019-Nov-16 07:55 120 25 5.4 9.0
2019-Nov-16 06:55 150 18 5.4 9.0
2019-Nov-16 05:55 150 25 5.4 8.0
2019-Nov-16 04:55 210 25 5.4 7.0
2019-Nov-16 03:55 170 25 5.4 7.0
2019-Nov-16 02:55 170 26 5.4 7.0
2019-Nov-16 01:55 230 25 5.4 8.0